Location: Most
(50.5133°N, 13.6207°E)
Time: 17:25:31
(UTC+02:00)

Nauka - Pass Details

Date: 27 September 2021
Orbit: 417 x 423 km, 51.6° (Epoch: 26 October)

Event Time Altitude Azimuth Distance (km) Brightness Sun altitude
Rises 21:48:22 0° 286° (WNW) 2,368 ? -27.4°
Reaches altitude 10° 21:50:30 10° 280° (W) 1,503 ? -27.7°
Enters shadow 21:51:30 18° 274° (W) 1,123 ? -27.8°
